Volver al catálogo

STARLINK-35747

ActivoComunicacionesVLEO
NORAD 66207·PAYLOAD·🇺🇸 United States

Lanzado Oct 28, 2025 desde Vandenberg Space Force Base

Loading…

Próximos Pases (próximas 24 horas)

TLE

ActualizadoSource: CelesTrak SupGP

Época: Sep 14, 2026, 22:59 UTC

1 66207C 25244B   26257.95812500  .00037865  00000+0  11189-2 0  2577
2 66207  53.1573  67.5959 0001194  83.9687 202.4909 15.34367404    18

Sigue STARLINK-35747 en tiempo real con AllMySat

Download on the App Store